Location: Newark
(50.8636°N, 0.1571°E)
Time: 16:31:36
(UTC+00:00)

ISS - Visible Passes

Search period start: 15 September 2019 00:00
Search period end: 25 September 2019 00:00
Orbit: 411 x 421 km, 51.6° (Epoch: 15 September)

Date Brightness Start Highest point End Pass type
(mag) Time Alt. Az. Time Alt. Az. Time Alt. Az.
15 Sep -1.3 03:32:39 12° SSE 03:32:39 12° SSE 03:33:03 10° SSE visible
19 Sep -1.3 20:11:46 10° SSW 20:12:13 13° SSW 20:12:13 13° SSW visible
20 Sep -2.4 19:23:47 10° SSW 19:26:18 21° SE 19:26:18 21° SE visible
21 Sep -1.8 18:36:09 10° S 18:38:04 15° SE 18:39:59 10° ESE visible
21 Sep -2.6 20:11:00 10° WSW 20:13:05 33° SW 20:13:05 33° SW visible
22 Sep -3.3 19:22:41 10° SW 19:25:50 40° SSE 19:26:47 32° ESE visible
22 Sep -0.9 20:59:07 10° W 20:59:41 14° W 20:59:41 14° W visible
23 Sep -2.7 18:34:30 10° SSW 18:37:25 29° SSE 18:40:19 10° E visible
23 Sep -3.2 20:10:34 10° WSW 20:13:14 54° WSW 20:13:14 54° WSW visible
24 Sep -3.9 19:22:04 10° WSW 19:25:23 71° SSE 19:26:40 34° E visible
24 Sep -0.9 20:58:49 10° W 20:59:34 16° W 20:59:34 16° W visible
